Flag for Poland Weather past 2 weeks in Tarnów, Poland

Now
66 °F

Overcast.


Feels Like: 66 °F
Forecast: 47 / 61 °F
Wind: No wind

Location: Tarnow

Current Time: Aug 20, 2014 at 8:46:02 PM

Latest Report: Aug 20, 2014 at 7:00 PM


Visibility: 22 mi

Pressure: 29.97 "Hg

Humidity: 77%

Dew point: 59 °F

Location of TarnówLocation

Historic Weather in Tarnów — Graph

°F

Tarnów temperature yesterday

Maximum temperature yesterday: 73 °F (at 1:00 PM)
Minimum temperature yesterday: 56 °F (at 2:00 AM)
Average temperature yesterday: 63 °F

Past Weeks' High & Low Weather Summary

 TemperatureHumidityPressure
High85 °F (Aug 10, 3:00 PM)98% (Aug 9, 7:00 AM)30.01 "Hg (Aug 9, 7:00 AM)
Low49 °F (Aug 18, 5:00 AM)34% (Aug 18, 3:00 PM)29.63 "Hg (Aug 14, 1:00 AM)
Average66 °F79%29.92 "Hg
* Reported Aug 5 7:00 PM — Aug 20 7:00 PM, Tarnów, Weather by CustomWeather, © 2014

Note: Actual official high and low records may vary slightly from our data, if they occured in-between our weather recording intervals... More about our weather records

Advertising

Tarnów weather history for previous 24 hours

 ConditionsComfort  
Time TempWeatherWind HumidityBarometerVisibility
7:00 PM
Aug 20
66 °FOvercast.No wind77%29.97 "Hg22 mi
6:00 PM69 °FPartly sunny.1 mph58%29.98 "Hg28 mi
5:00 PM71 °FScattered clouds.2 mph50%29.97 "Hg25 mi
4:00 PM70 °FPassing clouds.1 mph55%29.98 "Hg19 mi
3:00 PM68 °FPartly sunny.2 mph55%29.99 "Hg19 mi
2:00 PM68 °FOvercast.2 mph63%30.00 "Hg17 mi
1:00 PM66 °FOvercast.3 mph65%30.00 "Hg16 mi
12:00 PM66 °FOvercast.1 mph74%30.00 "Hg11 mi
11:00 AM65 °FOvercast.2 mph76%30.00 "Hg7 mi
10:00 AM63 °FOvercast.2 mph78%30.00 "Hg17 mi
9:00 AM63 °FOvercast.1 mph85%29.98 "Hg12 mi
8:00 AM60 °FOvercast.No wind97%29.97 "Hg14 mi
7:00 AM56 °FPartly sunny.No wind98%29.97 "Hg6 mi
6:00 AM51 °FPassing clouds.No wind95%29.97 "Hg6 mi
5:00 AM52 °FPassing clouds.No wind95%29.96 "Hg6 mi
4:00 AM54 °FClear.No wind95%29.95 "Hg6 mi
3:00 AM55 °FOvercast.No wind96%29.93 "Hg6 mi
2:00 AM55 °FOvercast.1 mph95%29.94 "Hg6 mi
1:00 AM55 °FClear.No wind95%29.94 "Hg6 mi
12:00 AM56 °FPassing clouds.No wind95%29.96 "Hg6 mi
11:00 PM
Aug 19
58 °FFog.1 mph95%29.96 "Hg6 mi
10:00 PM58 °FFog.No wind94%29.97 "Hg4 mi
9:00 PM59 °FPassing clouds.1 mph92%29.96 "Hg6 mi
8:00 PM61 °FOvercast.1 mph92%29.95 "Hg6 mi
Weather by CustomWeather, © 2014

See weather overviewHow to use our weather pages